Location: Cabeza Gorda
(40.0667°N, 4.9667°W)
Time: 19:35:54
(UTC+00:00)

Meteor 2-19 Rocket - Pass Details

Date: 15 January 2026
Orbit: 935 x 959 km, 82.5° (Epoch: 10 February)

Event Time Altitude Azimuth Distance (km) Brightness Sun altitude
Rises 06:52:08 0° 351° (N) 3,608 7.2 -9.2°
Reaches altitude 10° 06:54:38 10° 352° (N) 2,657 6.5 -8.8°
Maximum altitude 07:00:42 87° 265° (W) 942 4.5 -7.7°
Drops below altitude 10° 07:06:44 10° 176° (S) 2,636 7.1 -6.6°
Sets 07:09:12 0° 176° (S) 3,576 7.8 -6.2°
